Weather in Oshta

Russia / Vologda Oblast     60°51′08″N   35°33′12″E
temp.,
°C
wind,
m/s
gust,
m/s
humid.,
%
clouds,
%
prec.,
mm/h
press.,
hPa
HPBL,
m
21 april, wed
wed2100:00+2ese2570100 0.0 101993
03:00+1ese2677100 0.0 1017155
06:00+2ese2880100 0.0 1014313
09:00+3ene3976100 0.1 1010592
12:00+2ene31098100 2.5 1006523
15:00+2e2998100 3.4 1004518
18:00+2se2797100 0.6 1002351
21:00+1s2798100 1.1 1002575
22 april, thu
thu2200:00+1ssw3797100 0.2 1002921
03:00+1ssw4995100 0.4 1004824
06:00+2ssw31097100 0.1 1004696
09:00+3ssw41095100 0.2 1005554
12:00+7sw4879100 0.0 1006955
15:00+8sw387876 0.3 10071118
18:00+9sw2673100 0.1 1008335
21:00+5s249231 0.1 100970
23 april, fri
fri2300:00+5sse313895 0.0 1009271
03:00+5sse41394100 0.0 1008331
06:00+5sse4129599 0.0 1007497
09:00+6sse41095100 0.9 1008845
12:00+9s3673100 1.8 10081210
15:00+9ssw4778100 2.3 10091300
18:00+7s3782100 1.3 1010699
21:00+4sse2893100 1.4 1012203
24 april, sat
sat2400:00+4sse3992100 0.0 1011234
03:00+3sse2694100 0.0 1011158
06:00+4se2594100 0.6 1010321
09:00+2nne2599100 5.7 1008409
12:00+2nnw2698100 2.6 1007301
15:00+6n0394100 3.2 1004201
18:00+3ssw1298100 7.0 1005134
21:00+3n1199100 9.3 100450
25 april, sun
sun2500:00+4ene2119796 1.2 1002428
03:00+7e41287100 1.2 1000629
06:00+6e4119095 0.0 1000582
09:00+8e5118172 0.0 999911
12:00+8ene587698 0.2 10001138
15:00+7ene4785100 0.4 10001014
18:00+6ne3792100 0.1 1000767
21:00+4ese2493100 0.3 1001323